"Pseudo-MPEC" for W04057

Created 2023 Nov 30 6:22:08 UT using Find_Orb

Click here for an explanation of pseudo-MPECs

 
 Astrometry: 
     W04057 * C2023 11 15'DAstrometry:Wx8GQEQWXyB))Qs8TqN,i!baredacted;Z']$AoO18
     W04057   C2023 11 15Yp-YHe7!-t*_GvmIGu06wrRS,Yj0U9fclick40sG2^93F3q_[m,^O18
     W04057   C2023 11 15:'heren*$@\1LpV6KoV9%PakhXh3OMHvYa6;/AsPW+VMamx0#8jSO18
     W04057   C2023 11 17y[vforS:@Cli@%PVt9QnicS6nGi$J'nXZ*.gDL-gv-xrtIfc2?=#O18
     W04057   C2023 11 173dlliM`GaDUexplanationNh'[02qRliJf9k*%d!(RfNDU!^V)1DO18
     W04057   C2023 11 17KlZ5Fl-x8v#YiH=o2w^m[UIx84B=[VS'H`;6)tQku=/L6HRR;ha?O18

Station data:
(O18) WFST, Lenghu  (N38.607601 E93.895220).

Orbital elements:  W04057
   Perihelion 2024 Jan 26.33562 +/- 6.87 TT =  8:03:17 (JD 2460335.83562)
Epoch 2023 Nov 17.0 TT = JDT 2460265.5   Earth MOID: 0.0126   Ve: 0.0020
M 306.20893429 +/- 13               Ma: 0.0689                   AutoNEOCP
n   0.76477706 +/- 0.125            Peri.  293.88498 +/- 0.32
a   1.18425750 +/- 0.129            Node   239.12959 +/- 0.20
e   0.5349046 +/- 0.105             Incl.    5.09810 +/- 1.0
P   1.29/470.72d           H 24.39  G  0.15   U 11.3
q 0.55079262 +/- 0.0647    Q 1.81772238 +/- 0.322         (J2000 ecliptic)
From 6 observations 2023 Nov. 15-17; mean residual 0".09
Residuals in arcseconds: 
231115 O18  .05+  .03-    231115 O18  .07-  .06+    231117 O18  .17-  .06+    
231115 O18  .02+  .03-    231117 O18  .01+  .08+    231117 O18  .15+  .14-    

Ephemerides (geocentric):
Date (UTC) HH   RA             Dec           delta  r     elong  mag " sig PA
---- --------  ------------   ------------  ------ ------ -----  --- --------
2023 11 30 06  01 17 01.797   -20 05 42.49  .02530 0.9986 118.5 18.6 365'  47
2023 11 30 07  01 14 21.276   -20 40 00.91  .02519 0.9982 117.6 18.6 370'  48
2023 11 30 08  01 11 38.183   -21 14 27.11  .02509 0.9978 116.7 18.6 375'  48
2023 11 30 09  01 08 52.503   -21 48 59.79  .02499 0.9974 115.8 18.6 380'  48
2023 11 30 10  01 06 04.222   -22 23 37.58  .02490 0.9970 114.9 18.6 385'  48
2023 11 30 11  01 03 13.331   -22 58 19.04  .02481 0.9966 114.0 18.6 390'  49
2023 11 30 12  01 00 19.821   -23 33 02.72  .02473 0.9962 113.1 18.7 394'  49
2023 11 30 13  00 57 23.689   -24 07 47.09  .02466 0.9958 112.1 18.7 398'  49
2023 11 30 14  00 54 24.932   -24 42 30.60  .02459 0.9954 111.2 18.7 402'  50
2023 11 30 15  00 51 23.553   -25 17 11.65  .02453 0.9950 110.3 18.7 406'  50
2023 11 30 16  00 48 19.559   -25 51 48.60  .02447 0.9946 109.3 18.8 410'  50
2023 11 30 17  00 45 12.958   -26 26 19.79  .02442 0.9942 108.4 18.8 413'  51
2023 11 30 18  00 42 03.766   -27 00 43.53  .02438 0.9938 107.5 18.8 417'  51
2023 11 30 19  00 38 52.000   -27 34 58.11  .02434 0.9934 106.5 18.8 420'  51
2023 11 30 20  00 35 37.683   -28 09 01.81  .02431 0.9930 105.6 18.9 423'  52
2023 11 30 21  00 32 20.842   -28 42 52.89  .02428 0.9926 104.6 18.9 426'  52
2023 11 30 22  00 29 01.511   -29 16 29.63  .02426 0.9922 103.7 18.9 428'  52
2023 11 30 23  00 25 39.726   -29 49 50.29  .02425 0.9918 102.7 18.9 430'  53
2023 12 01 00  00 22 15.529   -30 22 53.15  .02424 0.9914 101.7 19.0 432'  53
2023 12 01 01  00 18 48.969   -30 55 36.50  .02424 0.9910 100.8 19.0 434'  54
2023 12 01 02  00 15 20.098   -31 27 58.67  .02425 0.9906  99.8 19.0 436'  54
2023 12 01 03  00 11 48.975   -31 59 57.99  .02426 0.9902  98.9 19.1 437'  55
2023 12 01 04  00 08 15.664   -32 31 32.86  .02428 .98980  97.9 19.1 438'  55
2023 12 01 05  00 04 40.234   -33 02 41.70  .02430 .98940  97.0 19.1 439'  56
2023 12 01 06  00 01 02.760   -33 33 22.97  .02433 .98900  96.0 19.2 440'  56
2023 12 01 07  23 57 23.324   -34 03 35.21  .02437 .98859  95.1 19.2 440'  57
2023 12 01 08  23 53 42.010   -34 33 17.01  .02441 .98819  94.1 19.3 440'  57
2023 12 01 09  23 49 58.910   -35 02 27.00  .02446 .98779  93.2 19.3 440'  58
2023 12 01 10  23 46 14.121   -35 31 03.90  .02452 .98739  92.3 19.3 440'  58
2023 12 01 11  23 42 27.745   -35 59 06.52  .02458 .98699  91.3 19.4 440'  59
2023 12 01 12  23 38 39.887   -36 26 33.71  .02464 .98659  90.4 19.4 439'  59
2023 12 01 13  23 34 50.659   -36 53 24.44  .02472 .98618  89.5 19.5 438'  60
2023 12 01 14  23 31 00.177   -37 19 37.73  .02480 .98578  88.6 19.5 437'  60
2023 12 01 15  23 27 08.560   -37 45 12.71  .02488 .98538  87.7 19.6 436'  61
2023 12 01 16  23 23 15.931   -38 10 08.58  .02497 .98498  86.7 19.6 434'  62
2023 12 01 17  23 19 22.417   -38 34 24.65  .02507 .98458  85.9 19.6 433'  62
2023 12 01 18  23 15 28.148   -38 58 00.32  .02517 .98417  85.0 19.7 431'  63
2023 12 01 19  23 11 33.256   -39 20 55.06  .02528 .98377  84.1 19.7 429'  63
2023 12 01 20  23 07 37.876   -39 43 08.46  .02539 .98337  83.2 19.8 427'  64
2023 12 01 21  23 03 42.143   -40 04 40.18  .02551 .98297  82.3 19.8 425'  65
2023 12 01 22  22 59 46.195   -40 25 29.98  .02563 .98256  81.5 19.9 422'  65
2023 12 01 23  22 55 50.170   -40 45 37.71  .02576 .98216  80.6 19.9 420'  66
2023 12 02 00  22 51 54.206   -41 05 03.31  .02589 .98176  79.8 20.0 417'  67
2023 12 02 01  22 47 58.442   -41 23 46.79  .02603 .98135  78.9 20.0 414'  67
2023 12 02 02  22 44 03.016   -41 41 48.26  .02618 .98095  78.1 20.1 412'  68
2023 12 02 03  22 40 08.062   -41 59 07.90  .02633 .98055  77.3 20.1 409'  69
2023 12 02 04  22 36 13.716   -42 15 45.96  .02648 .98015  76.5 20.2 406'  69
2023 12 02 05  22 32 20.111   -42 31 42.77  .02664 .97974  75.7 20.2 402'  70